Location: SE Lincoln, NE
(40.7805°N, 96.6275°W)
Time: 07:36:33
(UTC-05:00)

SL-24 R/B - RUBIN 2 - Pass Details

Date: 15 May 2021
Orbit: 583 x 1012 km, 64.6° (Epoch: 20 June)

Event Time Altitude Azimuth Distance (km) Brightness Sun altitude
Rises 23:37:49 0° 323° (NW) 3,318 8.6 -25.3°
Reaches altitude 10° 23:40:25 10° 319° (NW) 2,312 7.5 -25.5°
Enters shadow 23:45:25 54° 249° (WSW) 857 4.2 -25.9°
